Tracking 30970 objects as of 3-Jul-2025
HD Live streaming from Space Station
objects crossing your sky now

SYRACUSE 4A

Track SYRACUSE 4A now!


NORAD ID: 49333
Int'l Code: 2021-095B
Perigee: 35,787.0 km
Apogee: 35,802.0 km
Inclination: 0.0 °
Period: 1,436.1 minutes
Semi major axis: 42165 km
RCS: Unknown
Launch date: October 24, 2021
Source: France (FR)
Launch site: FRENCH GUIANA (FRGUI)
Your satellite tracking list
Your tracking list is empty




NASA's NSSDC Master Catalog

Two Line Element Set (TLE):
1 49333U 21095B   25183.88328361  .00000144  00000-0  00000-0 0  9996
2 49333   0.0010   5.2128 0001780 107.1308 172.3199  1.00268993 14453
Source of the keplerian elements: AFSPC